Back to catalog

KUIPER-00551

AliveCommunicationsVLEO
NORAD 69618·PAYLOAD·🇺🇸 United States

Launched Jun 17, 2026 from Guiana Space Centre

Loading…

Next Passes (next 24 hours)

TLE

FreshSource: CelesTrak SupGP

Epoch: Sep 14, 2026, 23:22 UTC

1 69618C 26140AC  26257.97409722  .00002974  00000+0  77021-4 0  2574
2 69618  51.8777 323.9378 0011809 130.3469 276.9768 15.38365075    16

Track KUIPER-00551 in real time with AllMySat

Download on the App Store